Location: Unspecified
(48.2082°N, 0.0000°E)
Time: 17:29:26
(UTC+00:00)

Altair - Pass Details

Date: 26 June 2019
Orbit: 1501 x 1683 km, 47.2° (Epoch: 17 July)

Event Time Altitude Azimuth Distance (km) Brightness Sun altitude
Rises 22:57:16 0° 282° (WNW) 4,773 10.5 -16.9°
Reaches altitude 10° 23:00:19 10° 281° (W) 3,811 9.9 -17.1°
Maximum altitude 23:10:02 74° 199° (SSW) 1,698 7.5 -17.5°
Drops below altitude 10° 23:20:04 10° 117° (ESE) 3,927 9.3 -17.8°
Sets 23:23:15 0° 115° (ESE) 4,923 9.8 -17.9°
